Volver al catálogo

STARLINK-37093

ActivoComunicacionesVLEO
NORAD 68194·PAYLOAD·🇺🇸 United States

Lanzado Mar 14, 2026 desde Vandenberg Space Force Base

Loading…

Próximos Pases (próximas 24 horas)

TLE

ActualizadoSource: CelesTrak SupGP

Época: Sep 14, 2026, 22:50 UTC

1 68194C 26050AD  26257.95187500 -.00007617  00000+0 -22510-3 0  2570
2 68194  53.1570 103.6764 0001311  91.1489 350.7699 15.34385876    16

Sigue STARLINK-37093 en tiempo real con AllMySat

Download on the App Store